UKV1251 NWWW-NZAA

Flight info

Callsign UKV1251
Flight time 2h 31m
Altitude 37000
Route VIRAR3W VIRAR A597 MINET DCT DUGAN/N0448F380 DCT APABO
Aircraft B738/M-SDE2E3FGIRWY/LB1

Departure

Time 2026-04-26 17:07
Airport La Tontouta International Airport (NWWW)

Arrival

Time 2026-04-26 19:38
Airport Auckland International Airport (NZAA)
Time Latitude Longitude Altitude Speed Heading
2026-04-26 16:41 -22.01340 166.21600 24 ft 0 kts 121°
2026-04-26 16:56 -22.01336 166.21593 29 ft 3 kts 120°
2026-04-26 16:56 -22.01326 166.21574 28 ft 3 kts 117°
2026-04-26 16:57 -22.01317 166.21555 26 ft 3 kts 121°
2026-04-26 16:57 -22.01305 166.21537 26 ft 3 kts 134°
2026-04-26 16:57 -22.01278 166.21506 23 ft 3 kts 138°
2026-04-26 16:58 -22.01273 166.21501 23 ft 0 kts 140°
2026-04-26 17:00 -22.01307 166.21525 23 ft 2 kts 184°
2026-04-26 17:00 -22.01332 166.21504 26 ft 9 kts 215°
2026-04-26 17:01 -22.01396 166.21489 24 ft 4 kts 171°
2026-04-26 17:01 -22.01418 166.21504 25 ft 6 kts 125°
2026-04-26 17:01 -22.01457 166.21566 25 ft 14 kts 121°
2026-04-26 17:01 -22.01505 166.21649 25 ft 11 kts 129°
2026-04-26 17:02 -22.01565 166.21658 25 ft 0 kts 203°
2026-04-26 17:02 -22.01566 166.21657 25 ft 1 kts 203°
2026-04-26 17:03 -22.01591 166.21644 27 ft 8 kts 206°
2026-04-26 17:03 -22.01650 166.21673 27 ft 11 kts 131°
2026-04-26 17:03 -22.01706 166.21751 27 ft 15 kts 120°
2026-04-26 17:03 -22.01759 166.21854 29 ft 14 kts 119°
2026-04-26 17:04 -22.01808 166.21946 29 ft 12 kts 120°
2026-04-26 17:04 -22.01861 166.22045 29 ft 18 kts 116°
2026-04-26 17:04 -22.01926 166.22170 29 ft 21 kts 120°
2026-04-26 17:04 -22.02009 166.22323 29 ft 26 kts 121°
2026-04-26 17:05 -22.02071 166.22436 29 ft 17 kts 121°
2026-04-26 17:05 -22.02122 166.22540 31 ft 15 kts 107°
2026-04-26 17:05 -22.02141 166.22628 31 ft 10 kts 121°
2026-04-26 17:05 -22.02180 166.22627 31 ft 5 kts 245°
2026-04-26 17:06 -22.02167 166.22574 31 ft 10 kts 299°
2026-04-26 17:06 -22.02154 166.22547 31 ft 0 kts 297°
2026-04-26 17:06 -22.02032 166.22329 29 ft 75 kts 301°
2026-04-26 17:06 -22.01635 166.21617 27 ft 144 kts 301°
2026-04-26 17:07 -22.01036 166.20597 392 ft 170 kts 304°
2026-04-26 17:07 -22.00391 166.19522 1264 ft 175 kts 301°
2026-04-26 17:07 -21.99921 166.18310 2031 ft 185 kts 275°
2026-04-26 17:07 -22.00102 166.16832 2360 ft 216 kts 250°
2026-04-26 17:08 -22.00986 166.15420 2615 ft 240 kts 220°
2026-04-26 17:08 -22.02541 166.14615 2891 ft 262 kts 186°
2026-04-26 17:08 -22.04338 166.14966 3597 ft 269 kts 150°
2026-04-26 17:08 -22.05744 166.16289 4529 ft 271 kts 133°
2026-04-26 17:09 -22.07030 166.17814 5342 ft 278 kts 133°
2026-04-26 17:09 -22.07890 166.18853 5870 ft 283 kts 133°
2026-04-26 17:09 -22.09664 166.21013 6905 ft 292 kts 133°
2026-04-26 17:09 -22.11025 166.22674 7651 ft 299 kts 133°
2026-04-26 17:10 -22.12622 166.24106 8421 ft 302 kts 154°
2026-04-26 17:10 -22.14603 166.24892 9107 ft 306 kts 170°
2026-04-26 17:10 -22.16707 166.25373 9854 ft 312 kts 173°
2026-04-26 17:10 -22.18876 166.25800 10429 ft 325 kts 174°
2026-04-26 17:11 -22.21161 166.26241 10601 ft 351 kts 173°
2026-04-26 17:11 -22.23620 166.26734 11003 ft 366 kts 173°
2026-04-26 17:11 -22.26147 166.27260 11628 ft 373 kts 173°
2026-04-26 17:11 -22.28711 166.27807 12360 ft 377 kts 173°
2026-04-26 17:12 -22.33926 166.28935 13721 ft 387 kts 173°
2026-04-26 17:12 -22.36583 166.29509 14332 ft 391 kts 173°
2026-04-26 17:13 -22.41925 166.30762 15590 ft 402 kts 164°
2026-04-26 17:13 -22.44471 166.32114 16193 ft 410 kts 155°
2026-04-26 17:13 -22.49493 166.35186 17355 ft 420 kts 154°
2026-04-26 17:14 -22.52054 166.36759 17919 ft 424 kts 154°
2026-04-26 17:14 -22.57246 166.39903 18998 ft 430 kts 155°
2026-04-26 17:14 -22.59876 166.41477 19493 ft 433 kts 156°
2026-04-26 17:15 -22.65194 166.44642 20466 ft 440 kts 156°
2026-04-26 17:15 -22.67859 166.46224 20946 ft 442 kts 156°
2026-04-26 17:15 -22.70566 166.47832 21426 ft 445 kts 156°
2026-04-26 17:16 -22.73295 166.49453 21892 ft 449 kts 156°
2026-04-26 17:16 -22.76044 166.51087 22338 ft 452 kts 157°
2026-04-26 17:16 -22.78806 166.52730 22791 ft 455 kts 157°
2026-04-26 17:16 -22.81588 166.54386 23239 ft 458 kts 157°
2026-04-26 17:17 -22.84391 166.56056 23630 ft 460 kts 157°
2026-04-26 17:17 -22.87210 166.57736 23985 ft 464 kts 157°
2026-04-26 17:17 -22.90051 166.59429 24301 ft 468 kts 157°
2026-04-26 17:17 -22.92923 166.61142 24635 ft 471 kts 157°
2026-04-26 17:18 -22.95811 166.62866 24968 ft 474 kts 157°
2026-04-26 17:18 -22.98714 166.64599 25298 ft 477 kts 157°
2026-04-26 17:18 -23.01635 166.66344 25622 ft 481 kts 157°
2026-04-26 17:18 -23.04571 166.68100 25937 ft 484 kts 157°
2026-04-26 17:19 -23.10474 166.71630 26577 ft 490 kts 157°
2026-04-26 17:19 -23.13470 166.73424 26892 ft 493 kts 157°
2026-04-26 17:19 -23.16485 166.75230 27196 ft 496 kts 157°
2026-04-26 17:20 -23.19515 166.77046 27520 ft 499 kts 157°
2026-04-26 17:20 -23.20543 166.77662 27623 ft 500 kts 157°
2026-04-26 17:20 -23.25637 166.80718 28132 ft 504 kts 156°
2026-04-26 17:20 -23.28716 166.82567 28415 ft 507 kts 156°
2026-04-26 17:21 -23.31818 166.84429 28694 ft 510 kts 156°
2026-04-26 17:21 -23.34933 166.86301 28976 ft 513 kts 156°
2026-04-26 17:21 -23.38036 166.88167 29280 ft 515 kts 157°
2026-04-26 17:21 -23.41182 166.90059 29571 ft 518 kts 157°
2026-04-26 17:22 -23.44343 166.91962 29825 ft 520 kts 156°
2026-04-26 17:22 -23.47527 166.93878 30066 ft 523 kts 156°
2026-04-26 17:22 -23.50725 166.95805 30311 ft 525 kts 156°
2026-04-26 17:22 -23.53895 166.97717 30586 ft 526 kts 157°
2026-04-26 17:23 -23.57109 166.99656 30824 ft 528 kts 157°
2026-04-26 17:23 -23.60337 167.01604 31079 ft 529 kts 157°
2026-04-26 17:23 -23.63558 167.03550 31380 ft 529 kts 157°
2026-04-26 17:23 -23.66773 167.05495 31739 ft 527 kts 157°
2026-04-26 17:24 -23.69978 167.07434 32126 ft 525 kts 157°
2026-04-26 17:24 -23.73169 167.09366 32499 ft 523 kts 157°
2026-04-26 17:24 -23.76349 167.11291 32829 ft 523 kts 157°
2026-04-26 17:24 -23.79529 167.13216 33141 ft 522 kts 158°
2026-04-26 17:25 -23.82702 167.15139 33474 ft 521 kts 158°
2026-04-26 17:25 -23.85868 167.17058 33874 ft 519 kts 158°
2026-04-26 17:25 -23.89020 167.18971 34245 ft 516 kts 158°
2026-04-26 17:25 -23.92158 167.20876 34469 ft 517 kts 158°
2026-04-26 17:26 -23.95313 167.22789 34609 ft 519 kts 158°
2026-04-26 17:26 -23.98481 167.24710 34776 ft 521 kts 158°
2026-04-26 17:26 -24.01617 167.26616 34999 ft 521 kts 159°
2026-04-26 17:26 -24.04798 167.28551 35252 ft 521 kts 159°
2026-04-26 17:27 -24.07965 167.30480 35474 ft 521 kts 159°
2026-04-26 17:27 -24.11125 167.32405 35690 ft 521 kts 159°
2026-04-26 17:27 -24.13228 167.33686 35822 ft 522 kts 159°
2026-04-26 17:27 -24.16403 167.35621 36035 ft 522 kts 159°
2026-04-26 17:28 -24.19569 167.37553 36283 ft 521 kts 159°
2026-04-26 17:28 -24.22730 167.39484 36544 ft 520 kts 160°
2026-04-26 17:28 -24.25889 167.41413 36788 ft 519 kts 160°
2026-04-26 17:28 -24.29044 167.43340 36940 ft 520 kts 160°
2026-04-26 17:29 -24.34321 167.46562 36936 ft 523 kts 160°
2026-04-26 17:29 -24.41729 167.51102 36935 ft 519 kts 160°
2026-04-26 17:30 -24.48015 167.54958 36935 ft 516 kts 160°
2026-04-26 17:30 -24.54232 167.58772 36951 ft 515 kts 160°
2026-04-26 17:31 -24.60480 167.62608 36949 ft 514 kts 160°
2026-04-26 17:31 -24.66731 167.66452 36952 ft 515 kts 160°
2026-04-26 17:32 -24.72996 167.70310 36949 ft 517 kts 160°
2026-04-26 17:32 -24.79285 167.74187 36957 ft 519 kts 160°
2026-04-26 17:33 -24.85671 167.77920 36988 ft 518 kts 163°
2026-04-26 17:34 -24.95334 167.83268 36962 ft 521 kts 163°
2026-04-26 17:34 -25.01816 167.86896 36955 ft 522 kts 162°
2026-04-26 17:35 -25.08290 167.90558 36957 ft 522 kts 162°
2026-04-26 17:35 -25.14747 167.94223 36991 ft 521 kts 163°
2026-04-26 17:36 -25.21168 167.97870 36968 ft 521 kts 163°
2026-04-26 17:36 -25.27607 168.01529 36960 ft 519 kts 163°
2026-04-26 17:37 -25.34018 168.05175 36954 ft 517 kts 163°
2026-04-26 17:37 -25.40411 168.08815 36966 ft 516 kts 163°
2026-04-26 17:38 -25.49932 168.14243 36981 ft 515 kts 163°
2026-04-26 17:38 -25.56291 168.17873 36978 ft 514 kts 163°
2026-04-26 17:39 -25.62644 168.21506 36968 ft 513 kts 163°
2026-04-26 17:39 -25.68980 168.25133 36974 ft 512 kts 163°
2026-04-26 17:40 -25.74245 168.28150 36974 ft 512 kts 163°
2026-04-26 17:40 -25.81617 168.32378 37004 ft 513 kts 163°
2026-04-26 17:41 -25.87968 168.36026 36988 ft 514 kts 163°
2026-04-26 17:41 -25.94320 168.39680 36987 ft 514 kts 163°
2026-04-26 17:42 -26.00680 168.43342 36986 ft 514 kts 163°
2026-04-26 17:42 -26.07034 168.47007 36995 ft 515 kts 163°
2026-04-26 17:43 -26.13362 168.50660 37018 ft 515 kts 162°
2026-04-26 17:43 -26.19729 168.54341 37001 ft 516 kts 162°
2026-04-26 17:44 -26.26099 168.58029 36991 ft 515 kts 162°
2026-04-26 17:44 -26.32455 168.61714 36999 ft 514 kts 162°
2026-04-26 17:45 -26.38796 168.65393 36998 ft 514 kts 162°
2026-04-26 17:45 -26.45140 168.69078 37025 ft 513 kts 162°
2026-04-26 17:46 -26.51485 168.72769 37002 ft 512 kts 162°
2026-04-26 17:46 -26.57002 168.75983 37007 ft 510 kts 162°
2026-04-26 17:47 -26.60058 168.77765 37007 ft 510 kts 162°
2026-04-26 17:47 -26.67365 168.82028 37005 ft 508 kts 162°
2026-04-26 17:48 -26.73625 168.85685 37050 ft 507 kts 161°
2026-04-26 17:48 -26.79840 168.89320 37013 ft 506 kts 161°
2026-04-26 17:49 -26.86078 168.92974 37005 ft 505 kts 161°
2026-04-26 17:49 -26.92294 168.96620 37007 ft 504 kts 161°
2026-04-26 17:50 -26.98511 169.00270 37008 ft 503 kts 161°
2026-04-26 17:50 -27.04710 169.03915 37044 ft 503 kts 160°
2026-04-26 17:51 -27.10916 169.07568 37017 ft 503 kts 160°
2026-04-26 17:51 -27.17118 169.11226 37015 ft 503 kts 160°
2026-04-26 17:52 -27.23283 169.14869 37017 ft 503 kts 160°
2026-04-26 17:52 -27.29482 169.18538 37022 ft 504 kts 160°
2026-04-26 17:53 -27.35682 169.22212 37022 ft 504 kts 160°
2026-04-26 17:54 -27.44992 169.27737 37022 ft 504 kts 160°
2026-04-26 17:54 -27.51214 169.31435 37023 ft 505 kts 160°
2026-04-26 17:55 -27.57420 169.35129 37021 ft 505 kts 160°
2026-04-26 17:55 -27.63600 169.38812 37023 ft 505 kts 160°
2026-04-26 17:56 -27.69830 169.42529 37033 ft 506 kts 159°
2026-04-26 17:57 -27.82248 169.49955 37024 ft 506 kts 159°
2026-04-26 17:57 -27.88473 169.53685 37028 ft 505 kts 159°
2026-04-26 17:58 -28.00901 169.61148 37042 ft 505 kts 158°
2026-04-26 17:59 -28.10161 169.66717 37035 ft 504 kts 158°
2026-04-26 17:59 -28.16343 169.70441 37045 ft 503 kts 158°
2026-04-26 18:00 -28.22512 169.74163 37041 ft 502 kts 158°
2026-04-26 18:00 -28.28666 169.77881 37078 ft 501 kts 158°
2026-04-26 18:01 -28.34820 169.81603 37050 ft 500 kts 157°
2026-04-26 18:01 -28.40951 169.85319 37048 ft 499 kts 157°
2026-04-26 18:02 -28.45008 169.87780 37050 ft 498 kts 157°
2026-04-26 18:02 -28.50377 169.91039 37051 ft 498 kts 157°
2026-04-26 18:03 -28.56101 169.94518 37059 ft 497 kts 157°
2026-04-26 18:03 -28.62202 169.98231 37065 ft 497 kts 157°
2026-04-26 18:04 -28.68309 170.01952 37062 ft 497 kts 157°
2026-04-26 18:05 -28.77457 170.07536 37064 ft 497 kts 157°
2026-04-26 18:05 -28.83552 170.11263 37063 ft 497 kts 156°
2026-04-26 18:06 -28.89658 170.15001 37100 ft 497 kts 156°
2026-04-26 18:06 -28.95765 170.18745 37072 ft 498 kts 156°
2026-04-26 18:07 -29.01865 170.22490 37077 ft 498 kts 156°
2026-04-26 18:07 -29.07925 170.26216 37077 ft 498 kts 156°
2026-04-26 18:08 -29.14042 170.29982 37081 ft 498 kts 156°
2026-04-26 18:08 -29.20146 170.33744 37110 ft 498 kts 155°
2026-04-26 18:09 -29.26217 170.37491 37089 ft 498 kts 155°
2026-04-26 18:09 -29.32314 170.41260 37082 ft 498 kts 155°
2026-04-26 18:10 -29.38407 170.45031 37087 ft 497 kts 155°
2026-04-26 18:10 -29.44501 170.48808 37085 ft 497 kts 155°
2026-04-26 18:11 -29.50585 170.52584 37110 ft 497 kts 155°
2026-04-26 18:11 -29.56638 170.56347 37092 ft 496 kts 155°
2026-04-26 18:12 -29.62711 170.60127 37094 ft 496 kts 155°
2026-04-26 18:12 -29.68780 170.63909 37094 ft 495 kts 155°
2026-04-26 18:13 -29.74842 170.67693 37101 ft 495 kts 155°
2026-04-26 18:13 -29.80893 170.71474 37116 ft 495 kts 155°
2026-04-26 18:14 -29.86940 170.75259 37104 ft 494 kts 155°
2026-04-26 18:14 -29.92950 170.79026 37098 ft 494 kts 155°
2026-04-26 18:15 -29.98985 170.82812 37105 ft 493 kts 155°
2026-04-26 18:15 -30.05018 170.86600 37113 ft 493 kts 155°
2026-04-26 18:16 -30.11045 170.90392 37126 ft 493 kts 155°
2026-04-26 18:16 -30.20047 170.96065 37107 ft 492 kts 155°
2026-04-26 18:17 -30.25085 170.99245 37108 ft 492 kts 155°
2026-04-26 18:17 -30.31052 171.03018 37107 ft 491 kts 155°
2026-04-26 18:18 -30.37050 171.06814 37113 ft 491 kts 155°
2026-04-26 18:18 -30.43037 171.10609 37111 ft 491 kts 155°
2026-04-26 18:19 -30.49048 171.14425 37122 ft 491 kts 155°
2026-04-26 18:19 -30.55045 171.18237 37117 ft 491 kts 155°
2026-04-26 18:20 -30.61049 171.22059 37113 ft 492 kts 155°
2026-04-26 18:20 -30.66033 171.25236 37129 ft 492 kts 155°
2026-04-26 18:21 -30.73011 171.29690 37115 ft 492 kts 155°
2026-04-26 18:21 -30.79024 171.33535 37128 ft 492 kts 155°
2026-04-26 18:22 -30.85028 171.37379 37125 ft 492 kts 155°
2026-04-26 18:22 -30.91037 171.41232 37130 ft 492 kts 155°
2026-04-26 18:23 -30.97007 171.45065 37149 ft 492 kts 155°
2026-04-26 18:23 -31.03007 171.48923 37135 ft 492 kts 155°
2026-04-26 18:24 -31.09010 171.52789 37129 ft 492 kts 155°
2026-04-26 18:24 -31.14968 171.56631 37137 ft 492 kts 155°
2026-04-26 18:25 -31.20956 171.60499 37138 ft 492 kts 155°
2026-04-26 18:25 -31.26975 171.64392 37154 ft 491 kts 155°
2026-04-26 18:26 -31.32918 171.68241 37138 ft 491 kts 155°
2026-04-26 18:26 -31.38900 171.72121 37141 ft 491 kts 155°
2026-04-26 18:27 -31.44872 171.76001 37141 ft 491 kts 155°
2026-04-26 18:27 -31.50848 171.79889 37144 ft 490 kts 155°
2026-04-26 18:28 -31.56812 171.83775 37155 ft 490 kts 155°
2026-04-26 18:28 -31.62741 171.87643 37148 ft 490 kts 155°
2026-04-26 18:29 -31.68711 171.91544 37149 ft 490 kts 155°
2026-04-26 18:29 -31.74664 171.95440 37149 ft 490 kts 155°
2026-04-26 18:30 -31.80625 171.99347 37152 ft 490 kts 155°
2026-04-26 18:30 -31.86577 172.03254 37155 ft 490 kts 155°
2026-04-26 18:31 -31.92534 172.07170 37152 ft 490 kts 155°
2026-04-26 18:31 -31.98445 172.11061 37152 ft 490 kts 155°
2026-04-26 18:32 -32.04388 172.14980 37152 ft 489 kts 155°
2026-04-26 18:32 -32.10331 172.18904 37156 ft 489 kts 155°
2026-04-26 18:33 -32.16274 172.22835 37159 ft 489 kts 156°
2026-04-26 18:33 -32.22184 172.26749 37153 ft 488 kts 156°
2026-04-26 18:34 -32.28114 172.30683 37160 ft 488 kts 155°
2026-04-26 18:34 -32.34008 172.34598 37159 ft 487 kts 155°
2026-04-26 18:35 -32.39916 172.38529 37190 ft 487 kts 156°
2026-04-26 18:35 -32.45825 172.42467 37159 ft 486 kts 156°
2026-04-26 18:36 -32.51711 172.46395 37162 ft 485 kts 156°
2026-04-26 18:36 -32.57589 172.50324 37167 ft 484 kts 156°
2026-04-26 18:37 -32.63447 172.54245 37164 ft 483 kts 156°
2026-04-26 18:37 -32.69275 172.58151 37188 ft 483 kts 155°
2026-04-26 18:38 -32.75136 172.62086 37176 ft 483 kts 155°
2026-04-26 18:38 -32.81015 172.66039 37168 ft 483 kts 155°
2026-04-26 18:39 -32.86835 172.69958 37171 ft 483 kts 155°
2026-04-26 18:39 -32.92692 172.73909 37172 ft 483 kts 155°
2026-04-26 18:40 -32.98549 172.77865 37176 ft 484 kts 156°
2026-04-26 18:40 -33.04412 172.81832 37171 ft 484 kts 156°
2026-04-26 18:41 -33.10274 172.85804 37169 ft 485 kts 156°
2026-04-26 18:41 -33.16141 172.89786 37172 ft 485 kts 155°
2026-04-26 18:42 -33.21978 172.93753 37176 ft 485 kts 155°
2026-04-26 18:42 -33.27857 172.97756 37181 ft 486 kts 155°
2026-04-26 18:43 -33.33735 173.01764 37183 ft 486 kts 155°
2026-04-26 18:43 -33.39607 173.05774 37180 ft 486 kts 155°
2026-04-26 18:44 -33.45449 173.09770 37170 ft 486 kts 155°
2026-04-26 18:44 -33.51323 173.13795 37203 ft 486 kts 156°
2026-04-26 18:45 -33.52928 173.14896 37192 ft 486 kts 156°
2026-04-26 18:52 -33.57708 173.18177 37182 ft 485 kts 156°
2026-04-26 18:53 -33.63571 173.22207 37180 ft 484 kts 156°
2026-04-26 18:53 -33.69373 173.26201 37181 ft 483 kts 156°
2026-04-26 18:54 -33.75193 173.30215 37180 ft 482 kts 156°
2026-04-26 18:54 -33.80992 173.34219 37190 ft 480 kts 155°
2026-04-26 18:55 -33.86785 173.38226 37178 ft 477 kts 155°
2026-04-26 18:55 -33.92737 173.41610 37185 ft 469 kts 163°
2026-04-26 18:56 -33.98785 173.44481 37179 ft 466 kts 164°
2026-04-26 18:56 -34.04777 173.47322 37195 ft 464 kts 162°
2026-04-26 18:57 -34.08783 173.49263 37189 ft 463 kts 162°
2026-04-26 18:57 -34.16735 173.53172 37182 ft 462 kts 162°
2026-04-26 18:58 -34.22677 173.56110 37187 ft 461 kts 162°
2026-04-26 18:58 -34.28582 173.59034 37191 ft 461 kts 162°
2026-04-26 18:59 -34.34521 173.61977 37200 ft 461 kts 161°
2026-04-26 18:59 -34.40487 173.64936 36835 ft 464 kts 161°
2026-04-26 19:00 -34.43467 173.66418 36577 ft 461 kts 160°
2026-04-26 19:00 -34.46419 173.67887 36321 ft 457 kts 160°
2026-04-26 19:00 -34.49364 173.69354 36075 ft 456 kts 160°
2026-04-26 19:00 -34.52302 173.70816 35828 ft 455 kts 160°
2026-04-26 19:01 -34.55236 173.72279 35586 ft 454 kts 160°
2026-04-26 19:01 -34.58154 173.73734 35357 ft 453 kts 159°
2026-04-26 19:01 -34.61028 173.75168 35124 ft 452 kts 159°
2026-04-26 19:01 -34.63933 173.76619 34880 ft 450 kts 159°
2026-04-26 19:02 -34.66826 173.78065 34642 ft 449 kts 158°
2026-04-26 19:02 -34.69710 173.79509 34404 ft 447 kts 159°
2026-04-26 19:02 -34.72582 173.80948 34172 ft 446 kts 158°
2026-04-26 19:02 -34.73552 173.81434 34082 ft 445 kts 158°
2026-04-26 19:03 -34.78302 173.83815 33634 ft 443 kts 159°
2026-04-26 19:03 -34.81147 173.85242 33366 ft 441 kts 158°
2026-04-26 19:03 -34.83022 173.86184 33190 ft 440 kts 158°
2026-04-26 19:03 -34.86772 173.88068 32846 ft 438 kts 158°
2026-04-26 19:04 -34.89585 173.89482 32586 ft 437 kts 158°
2026-04-26 19:04 -34.92391 173.90895 32328 ft 435 kts 158°
2026-04-26 19:04 -34.95180 173.92301 32074 ft 433 kts 158°
2026-04-26 19:04 -34.97060 173.93248 31902 ft 432 kts 159°
2026-04-26 19:05 -35.02569 173.96026 31411 ft 429 kts 159°
2026-04-26 19:05 -35.05319 173.97415 31164 ft 427 kts 159°
2026-04-26 19:05 -35.08060 173.98800 30919 ft 425 kts 159°
2026-04-26 19:06 -35.10792 174.00182 30677 ft 424 kts 159°
2026-04-26 19:06 -35.13520 174.01563 30459 ft 423 kts 159°
2026-04-26 19:06 -35.16232 174.02936 30205 ft 422 kts 159°
2026-04-26 19:06 -35.18937 174.04307 29919 ft 420 kts 159°
2026-04-26 19:07 -35.21604 174.05659 29644 ft 419 kts 159°
2026-04-26 19:07 -35.24330 174.07043 29363 ft 418 kts 159°
2026-04-26 19:07 -35.27009 174.08404 29089 ft 416 kts 159°
2026-04-26 19:07 -35.29645 174.09744 28822 ft 415 kts 159°
2026-04-26 19:08 -35.32307 174.11098 28554 ft 413 kts 159°
2026-04-26 19:08 -35.34953 174.12445 28289 ft 411 kts 158°
2026-04-26 19:08 -35.37594 174.13790 28026 ft 410 kts 158°
2026-04-26 19:08 -35.40220 174.15129 27767 ft 408 kts 158°
2026-04-26 19:09 -35.42838 174.16464 27507 ft 406 kts 158°
2026-04-26 19:09 -35.45447 174.17796 27251 ft 405 kts 158°
2026-04-26 19:09 -35.48043 174.19123 26999 ft 403 kts 158°
2026-04-26 19:09 -35.50631 174.20446 26746 ft 402 kts 158°
2026-04-26 19:10 -35.53214 174.21767 26501 ft 400 kts 158°
2026-04-26 19:10 -35.55780 174.23080 26241 ft 398 kts 158°
2026-04-26 19:10 -35.58325 174.24384 25860 ft 394 kts 158°
2026-04-26 19:10 -35.60841 174.25675 25447 ft 391 kts 158°
2026-04-26 19:11 -35.63343 174.26958 25021 ft 388 kts 158°
2026-04-26 19:11 -35.65792 174.28215 24604 ft 386 kts 158°
2026-04-26 19:11 -35.68266 174.29486 24157 ft 385 kts 158°
2026-04-26 19:11 -35.70731 174.30753 23715 ft 383 kts 158°
2026-04-26 19:12 -35.73184 174.32015 23223 ft 381 kts 158°
2026-04-26 19:12 -35.75619 174.33268 22773 ft 378 kts 158°
2026-04-26 19:12 -35.78038 174.34514 22340 ft 375 kts 158°
2026-04-26 19:12 -35.80443 174.35753 21913 ft 372 kts 158°
2026-04-26 19:13 -35.82821 174.36980 21498 ft 369 kts 158°
2026-04-26 19:13 -35.85180 174.38197 21086 ft 366 kts 158°
2026-04-26 19:13 -35.87486 174.39388 20684 ft 363 kts 158°
2026-04-26 19:13 -35.89809 174.40589 20277 ft 360 kts 158°
2026-04-26 19:14 -35.92110 174.41778 19878 ft 357 kts 158°
2026-04-26 19:14 -35.94399 174.42962 19483 ft 355 kts 158°
2026-04-26 19:14 -35.96670 174.44138 19087 ft 353 kts 158°
2026-04-26 19:14 -35.98167 174.44913 18825 ft 351 kts 158°
2026-04-26 19:15 -36.01170 174.46470 18263 ft 349 kts 158°
2026-04-26 19:15 -36.03400 174.47626 17828 ft 346 kts 158°
2026-04-26 19:15 -36.05611 174.48774 17415 ft 343 kts 158°
2026-04-26 19:15 -36.07803 174.49912 17021 ft 340 kts 158°
2026-04-26 19:16 -36.09950 174.51028 16637 ft 337 kts 158°
2026-04-26 19:16 -36.12102 174.52147 16255 ft 334 kts 158°
2026-04-26 19:16 -36.14237 174.53258 15854 ft 331 kts 158°
2026-04-26 19:16 -36.16353 174.54360 15499 ft 328 kts 158°
2026-04-26 19:17 -36.17715 174.55068 15221 ft 328 kts 158°
2026-04-26 19:17 -36.19076 174.55778 14904 ft 329 kts 158°
2026-04-26 19:17 -36.21131 174.56977 14632 ft 323 kts 153°
2026-04-26 19:17 -36.23108 174.58287 14274 ft 321 kts 152°
2026-04-26 19:18 -36.25054 174.59609 13915 ft 318 kts 152°
2026-04-26 19:18 -36.26991 174.60918 13514 ft 316 kts 153°
2026-04-26 19:18 -36.28919 174.62207 13129 ft 313 kts 153°
2026-04-26 19:18 -36.30834 174.63478 12753 ft 311 kts 153°
2026-04-26 19:19 -36.32739 174.64738 12378 ft 309 kts 153°
2026-04-26 19:19 -36.34631 174.65987 12017 ft 306 kts 154°
2026-04-26 19:19 -36.36582 174.67019 11660 ft 303 kts 162°
2026-04-26 19:19 -36.38553 174.67819 11316 ft 301 kts 164°
2026-04-26 19:20 -36.40549 174.68586 10968 ft 299 kts 164°
2026-04-26 19:20 -36.41862 174.69094 10726 ft 295 kts 164°
2026-04-26 19:20 -36.44406 174.70099 10429 ft 276 kts 164°
2026-04-26 19:20 -36.46192 174.70819 10294 ft 263 kts 164°
2026-04-26 19:21 -36.47911 174.71517 10079 ft 260 kts 164°
2026-04-26 19:21 -36.49697 174.72244 9251 ft 276 kts 163°
2026-04-26 19:21 -36.51517 174.72990 8514 ft 281 kts 163°
2026-04-26 19:21 -36.53386 174.73759 7774 ft 285 kts 163°
2026-04-26 19:22 -36.55289 174.74543 7044 ft 288 kts 163°
2026-04-26 19:22 -36.57200 174.75332 6321 ft 290 kts 163°
2026-04-26 19:22 -36.59116 174.76124 5584 ft 290 kts 163°
2026-04-26 19:22 -36.61040 174.76919 4850 ft 291 kts 164°
2026-04-26 19:23 -36.62959 174.77711 4078 ft 290 kts 164°
2026-04-26 19:23 -36.64868 174.78500 3493 ft 285 kts 164°
2026-04-26 19:23 -36.66688 174.79256 3295 ft 266 kts 164°
2026-04-26 19:23 -36.68385 174.79961 3136 ft 249 kts 165°
2026-04-26 19:24 -36.69973 174.80620 3033 ft 231 kts 165°
2026-04-26 19:24 -36.71421 174.81221 3027 ft 211 kts 165°
2026-04-26 19:24 -36.73970 174.82278 3018 ft 183 kts 166°
2026-04-26 19:25 -36.75184 174.82779 3032 ft 184 kts 166°
2026-04-26 19:25 -36.75992 174.83112 3031 ft 185 kts 166°
2026-04-26 19:25 -36.77595 174.83777 3003 ft 174 kts 166°
2026-04-26 19:25 -36.78713 174.84241 2997 ft 166 kts 166°
2026-04-26 19:26 -36.79804 174.84692 3005 ft 165 kts 166°
2026-04-26 19:26 -36.80898 174.85145 2987 ft 165 kts 166°
2026-04-26 19:26 -36.81982 174.85595 3002 ft 163 kts 166°
2026-04-26 19:26 -36.83047 174.86037 3008 ft 163 kts 166°
2026-04-26 19:27 -36.84122 174.86505 2996 ft 165 kts 159°
2026-04-26 19:27 -36.84909 174.87550 3012 ft 175 kts 115°
2026-04-26 19:27 -36.85066 174.89154 3040 ft 199 kts 96°
2026-04-26 19:27 -36.85089 174.90895 3012 ft 200 kts 95°
2026-04-26 19:28 -36.85105 174.92617 2998 ft 196 kts 95°
2026-04-26 19:28 -36.85119 174.94319 3007 ft 196 kts 95°
2026-04-26 19:28 -36.85135 174.96050 3037 ft 211 kts 95°
2026-04-26 19:28 -36.85171 174.97917 3003 ft 215 kts 102°
2026-04-26 19:29 -36.85683 174.99583 3016 ft 211 kts 114°
2026-04-26 19:29 -36.85768 175.01436 3016 ft 220 kts 82°
2026-04-26 19:29 -36.85330 175.03256 3172 ft 213 kts 79°
2026-04-26 19:29 -36.85145 175.05081 3833 ft 214 kts 101°
2026-04-26 19:30 -36.85647 175.06862 3759 ft 222 kts 130°
2026-04-26 19:30 -36.86785 175.08074 3311 ft 210 kts 153°
2026-04-26 19:30 -36.88021 175.08968 3047 ft 199 kts 155°
2026-04-26 19:30 -36.88813 175.09533 3023 ft 197 kts 155°
2026-04-26 19:31 -36.90470 175.10289 3001 ft 186 kts 186°
2026-04-26 19:31 -36.91588 175.09716 3001 ft 172 kts 223°
2026-04-26 19:31 -36.92342 175.08593 3009 ft 167 kts 230°
2026-04-26 19:31 -36.93052 175.07438 3024 ft 169 kts 231°
2026-04-26 19:32 -36.93605 175.06143 3007 ft 164 kts 244°
2026-04-26 19:32 -36.94000 175.04846 2989 ft 155 kts 246°
2026-04-26 19:32 -36.94356 175.03588 2998 ft 152 kts 246°
2026-04-26 19:32 -36.94699 175.02346 2991 ft 150 kts 246°
2026-04-26 19:33 -36.95037 175.01115 3004 ft 153 kts 246°
2026-04-26 19:33 -36.95382 174.99855 3004 ft 153 kts 246°
2026-04-26 19:33 -36.95719 174.98625 2992 ft 145 kts 246°
2026-04-26 19:33 -36.96034 174.97468 2804 ft 135 kts 246°
2026-04-26 19:34 -36.96328 174.96391 2637 ft 127 kts 246°
2026-04-26 19:34 -36.96614 174.95348 2488 ft 129 kts 245°
2026-04-26 19:34 -36.96911 174.94266 2324 ft 132 kts 246°
2026-04-26 19:34 -36.97192 174.93173 2128 ft 132 kts 248°
2026-04-26 19:35 -36.97435 174.92072 1847 ft 130 kts 250°
2026-04-26 19:35 -36.97688 174.91009 1647 ft 128 kts 247°
2026-04-26 19:35 -36.97989 174.89944 1474 ft 131 kts 245°
2026-04-26 19:35 -36.98317 174.88881 1318 ft 130 kts 245°
2026-04-26 19:36 -36.98633 174.87816 1155 ft 130 kts 245°
2026-04-26 19:36 -36.98849 174.87113 1078 ft 131 kts 246°
2026-04-26 19:36 -36.99250 174.85631 876 ft 136 kts 248°
2026-04-26 19:36 -36.99567 174.84524 684 ft 136 kts 248°
2026-04-26 19:37 -36.99893 174.83410 497 ft 137 kts 248°
2026-04-26 19:37 -37.00195 174.82279 333 ft 138 kts 250°
2026-04-26 19:37 -37.00507 174.81142 149 ft 138 kts 248°
2026-04-26 19:37 -37.00828 174.80039 31 ft 125 kts 253°
2026-04-26 19:38 -37.01060 174.79180 20 ft 83 kts 251°
2026-04-26 19:38 -37.01195 174.78685 22 ft 42 kts 251°
2026-04-26 19:38 -37.01242 174.78437 22 ft 27 kts 263°
2026-04-26 19:38 -37.01236 174.78228 21 ft 19 kts 278°
2026-04-26 19:39 -37.01224 174.78144 23 ft 0 kts 281°
2026-04-26 19:40 -37.01218 174.78125 22 ft 6 kts 299°
2026-04-26 19:40 -37.01158 174.78122 22 ft 13 kts 46°
2026-04-26 19:41 -37.01112 174.78234 23 ft 14 kts 54°
2026-04-26 19:41 -37.01027 174.78282 29 ft 14 kts 18°
2026-04-26 19:41 -37.00944 174.78354 26 ft 16 kts 12°
2026-04-26 19:41 -37.00905 174.78361 30 ft 16 kts
2026-04-26 19:42 -37.00758 174.78387 30 ft 8 kts 19°
2026-04-26 19:42 -37.00692 174.78389 29 ft 8 kts 349°
2026-04-26 19:42 -37.00671 174.78375 26 ft 4 kts 315°
2026-04-26 19:42 -37.00663 174.78347 26 ft 3 kts 273°
2026-04-26 19:43 -37.00659 174.78327 26 ft 1 kts 285°
2026-04-26 19:43 -37.00658 174.78322 26 ft 0 kts 284°